Regional Weather Roundup
Issued by NWS

Home | Current Version | Previous Version | Graphics & Text | Print | Product List | Glossary On
Versions: 1 2 3 4 5 6 7 8 9 10 11 12 13 14 15 16 17 18 19 20 21 22 23 24 25 26 27 28 29 30 31 32 33 34 35 36 37 38 39 40 41 42 43 44 45 46 47 48
000
ASUS45 KCYS 290410
RWRWY

WYOMING REGIONAL WEATHER ROUNDUP
NATIONAL WEATHER SERVICE CHEYENNE WY
1000 PM MDT MON JUL 28 2014

NOTE:  "FAIR" INDICATES FEW OR NO CLOUDS BELOW 12,000 FEET
WITH NO SIGNIFICANT WEATHER AND/OR OBSTRUCTIONS TO VISIBILITY.

WYZ001-290500-
YELLOWSTONE NATIONAL PARK

CITY           SKY/WX    TMP DP  RH WIND       PRES   REMARKS
LK YELLOWSTONE   N/A     61  43  51 VRB7      30.51R
W YELLOWSTONE  NOT AVBL

$$
WYZ002>013-054>058-071-098>099-290500-
NORTHERN WYOMING

CITY           SKY/WX    TMP DP  RH WIND       PRES   REMARKS
JACKSON        CLOUDY    70  43  37 N10       30.32S
CODY           NOT AVBL
GREYBULL       CLOUDY    85  45  24 N6        30.15R
WORLAND        CLOUDY    79  50  36 S15G21    30.21R
SHERIDAN       MOCLDY    69  54  58 S5        30.22R
BUFFALO        MOCLDY    74  44  34 W7        30.31R
GILLETTE       PTCLDY    70  51  51 SE8       30.26R
HULETT         FAIR      68  52  56 MISG      30.28
NEWCASTLE      FAIR      70  48  46 E16       30.26

$$
WYZ014>020-022>026-101>103-290500-
CENTRAL WYOMING

CITY           SKY/WX    TMP DP  RH WIND       PRES   REMARKS
BIG PINEY      CLOUDY    72  40  31 W8        30.35R
PINEDALE       CLOUDY    66  43  42 NW3       30.34R
DUBOIS         MOCLDY    68  36  30 SE6       30.39S
LANDER         CLOUDY    79  35  20 N6        30.23R
RIVERTON       CLOUDY    80  37  21 N22       30.24R
CASPER         CLEAR     74  37  26 E9        30.24R
DOUGLAS        CLEAR     74  53  48 E17G24    30.26R

$$
WYZ021-027>030-104>119-290500-
SOUTHERN WYOMING

CITY           SKY/WX    TMP DP  RH WIND       PRES   REMARKS
EVANSTON       LGT RAIN  58  54  86 SW12      30.39R
FORT BRIDGER   CLOUDY    67  50  54 SW22G35   30.37R
ROCK SPRINGS   CLOUDY    72  44  36 W8        30.33R
DIXON          FAIR      70  46  41 S5        30.38R
RAWLINS        PTCLDY    71  43  36 E17G24    30.34R
SARATOGA       CLOUDY    72  45  37 SW6       30.38R
LARAMIE        MOCLDY    62  49  62 SE14      30.41R
CHEYENNE       MOCLDY    64  55  72 SW10      30.34F
TORRINGTON     CLEAR     73  57  57 SE6       30.23R
PINE BLUFFS    FAIR      63  59  88 E6        30.31R

$$


USA.gov is the U.S. government's official web portal to all federal, state and local government web resources and services.